Location: Newark
(22.3091°N, 72.0172°E)
Time: 12:46:28
(UTC+00:00)

Hubble Space Telescope - Visible Passes

Search period start: 15 July 2020 00:00
Search period end: 25 July 2020 00:00
Orbit: 536 x 540 km, 28.5° (Epoch: 14 July)

Date Brightness Start Highest point End Pass type
(mag) Time Alt. Az. Time Alt. Az. Time Alt. Az.
15 Jul 1.5 15:51:36 10° WNW 15:55:33 44° N 15:55:43 44° NNE visible
16 Jul 1.2 15:40:55 10° WNW 15:44:55 51° NNE 15:45:26 47° NE visible
17 Jul 1.0 15:30:13 10° WNW 15:34:17 60° NNE 15:35:10 47° ENE visible
18 Jul 0.8 15:19:31 10° WNW 15:23:38 73° NNE 15:24:54 42° E visible
19 Jul 0.7 15:08:50 10° WNW 15:12:57 90° SSW 15:14:39 34° ESE visible
20 Jul 0.8 14:58:10 10° WNW 15:02:16 71° SSW 15:04:26 26° ESE visible
21 Jul 1.1 14:47:32 10° W 14:51:34 54° SSW 14:54:15 19° SE visible
22 Jul 1.6 14:36:57 10° W 14:40:51 41° SSW 14:44:07 14° SE visible
23 Jul 2.0 14:26:27 10° W 14:30:07 31° SSW 14:33:47 10° SE visible
24 Jul 2.5 14:16:03 10° W 14:19:23 24° SSW 14:22:43 10° SSE visible
